Location: North Evanston
(42.0634°N, 87.6976°W)
Time: 14:09:53
(UTC+00:00)

Injun/Solrad 3 - Pass Details

Date: 11 May 2026
Orbit: 867 x 989 km, 66.8° (Epoch: 7 June)

Event Time Altitude Azimuth Distance (km) Brightness Sun altitude
Rises 06:33:44 0° 333° (NNW) 3,675 11.7 -29.1°
Reaches altitude 10° 06:36:23 10° 338° (NNW) 2,737 11.0 -29.0°
Maximum altitude 06:42:37 49° 53° (NE) 1,249 8.7 -28.7°
Enters shadow 06:46:05 26° 115° (ESE) 1,850 9.3 -28.5°
Drops below altitude 10° 06:48:50 10° 128° (SE) 2,741 - -28.4°
Sets 06:51:30 0° 134° (SE) 3,681 - -28.2°
